DateTimeUTC,F1_A11,F1_S11,BsB_S11,BsG_S11,BsR_S11,BbsB_S11,BbsG_S11,BbsR_S11,BaB_A11,BaG_A11,BaR_A11,Tu_S11,T_S11,Uu_S11,U_S11,P_S11,T1_A11
2021-08-13T02:00:00Z,00040200,20000000,,,,,,,-000.02,-000.36,-000.10,18.3,25.1,06.9,04.6,0676.4,31.0
2021-08-13T02:01:00Z,00040200,20000000,,,,,,,-000.18,0000.18,0000.03,18.4,25.1,06.9,04.6,0676.4,31.0
2021-08-13T02:02:00Z,00040200,20000000,,,,,,,-000.15,-000.01,-000.21,18.4,25.2,07.0,04.6,0676.4,31.0
2021-08-13T02:03:00Z,00040200,60000000,,,,,,,0000.72,0000.31,0000.55,18.4,25.2,07.0,04.6,0676.4,31.0
2021-08-13T02:04:00Z,00040200,40000000,0003.47,0003.21,0002.12,0000.32,0000.57,0000.51,0000.49,0000.64,0000.43,18.6,25.0,06.9,04.7,0677.3,31.0
2021-08-13T02:05:00Z,00140200,00000000,0004.03,0002.57,0002.26,0000.58,0000.36,0000.58,0001.42,0003.25,-000.89,18.6,25.0,06.9,04.7,0677.4,31.0
2021-08-13T02:05:11Z,00140200,00000000,0004.03,0002.57,0002.26,0000.58,0000.36,0000.58,,,,18.6,25.0,06.9,04.7,0677.4,31.0
2021-08-13T02:05:12Z,,00000000,0004.03,0002.57,0002.26,0000.58,0000.36,0000.58,,,,18.6,25.0,06.9,04.7,0677.4,
2021-08-13T02:05:19Z,00000200,00000000,0004.03,0002.57,0002.26,0000.58,0000.36,0000.58,0005.72,-000.35,0002.36,18.6,25.0,06.9,04.7,0677.4,30.9
2021-08-13T02:06:00Z,00000200,00000000,0003.76,0003.16,0002.09,0000.34,0000.79,0000.23,0000.75,0001.38,0000.90,18.6,24.9,06.9,04.7,0677.4,30.9
2021-08-13T02:07:00Z,00000200,00000000,0002.86,0002.52,0002.16,0000.58,0000.31,0000.15,0000.90,0000.55,0000.40,18.6,24.9,07.0,04.8,0677.4,30.9
2021-08-13T02:08:00Z,00000200,00000000,0003.31,0002.84,0002.26,0000.05,0000.56,0000.36,0001.04,0001.10,0001.00,18.5,24.9,07.1,04.8,0677.4,30.9
2021-08-13T02:09:00Z,00000200,00000000,0003.91,0002.80,0001.97,0000.15,0000.61,0000.62,0000.22,0000.07,-000.03,18.5,24.9,07.1,04.8,0677.4,30.8
2021-08-13T02:10:00Z,00000200,00000000,0004.18,0002.96,0002.08,0000.58,0000.28,0000.03,0000.68,0000.51,0000.61,18.5,24.8,07.1,04.8,0677.4,30.8
2021-08-13T02:11:00Z,00000200,00000000,0003.77,0002.90,0001.98,0000.31,0000.36,0000.44,0000.91,0001.08,0000.71,18.5,24.8,07.1,04.8,0677.4,30.8
2021-08-13T02:12:00Z,00000200,00000000,0004.05,0002.78,0002.13,-000.11,0000.32,0000.22,0000.78,0000.74,0000.53,18.5,24.8,07.0,04.8,0677.3,30.8
2021-08-13T02:13:00Z,00000200,00000000,0003.55,0002.28,0002.02,0000.14,0000.14,0000.23,0000.96,0001.03,0000.73,18.5,24.8,07.1,04.8,0677.4,30.8
2021-08-13T02:14:00Z,00000200,00000000,0003.49,0002.85,0002.07,0000.93,0000.38,0000.20,0001.00,0000.55,0000.60,18.6,24.8,07.0,04.8,0677.4,30.9
2021-08-13T02:15:00Z,00000200,00000000,0002.95,0002.56,0001.91,-000.06,0000.38,0000.16,0000.90,0000.67,0000.76,18.6,24.9,07.0,04.8,0677.3,30.9
2021-08-13T02:16:00Z,00000200,00000000,0003.10,0002.24,0001.90,0000.35,0000.44,0000.04,0000.95,0000.94,0000.39,18.7,24.9,06.9,04.7,0677.3,30.9
2021-08-13T02:17:00Z,00000200,00000000,0003.14,0002.38,0001.78,0000.56,0000.28,0000.54,0000.47,0000.30,0000.68,18.7,24.9,06.9,04.7,0677.3,30.9
2021-08-13T02:18:00Z,00000200,00000000,0002.74,0002.31,0001.89,0000.68,0000.48,0000.16,0000.67,0000.77,-000.04,18.7,24.9,06.8,04.6,0677.3,30.9
2021-08-13T02:19:00Z,00000200,00000000,0002.95,0002.35,0001.82,0000.40,0000.42,0000.51,0000.72,0000.80,0000.75,18.6,24.9,06.8,04.6,0677.3,30.9
2021-08-13T02:20:00Z,00000200,00000000,0003.98,0002.09,0001.66,0000.56,0000.30,0000.15,0000.54,0000.46,0000.40,18.6,24.9,06.7,04.6,0677.3,30.9
2021-08-13T02:21:00Z,00000200,00000000,0003.76,0002.40,0001.64,0000.75,0000.21,0000.01,0000.69,0000.58,0000.67,18.6,24.8,06.7,04.6,0677.3,30.8
2021-08-13T02:22:00Z,00000200,00000000,0003.04,0002.20,0001.60,0000.29,0000.48,-000.01,0000.81,0000.64,0000.40,18.5,24.8,06.8,04.6,0677.3,30.8
2021-08-13T02:23:00Z,00000200,00000000,0002.90,0002.29,0001.64,0000.52,0000.45,0000.48,0000.38,0000.50,0000.51,18.5,24.8,06.8,04.6,0677.3,30.8
2021-08-13T02:24:00Z,00000200,00000000,0003.70,0002.17,0001.84,0000.55,0000.26,0000.50,0000.77,0000.82,0000.28,18.4,24.8,06.7,04.6,0677.2,30.8
2021-08-13T02:25:00Z,00000200,00000000,0003.22,0002.60,0001.75,0000.79,0000.38,0000.29,0000.77,0000.65,0000.81,18.4,24.8,06.7,04.5,0677.2,30.8
2021-08-13T02:26:00Z,00000200,00000000,0003.84,0002.47,0001.57,0000.78,0000.29,0000.42,0000.41,0000.59,0000.34,18.4,24.7,06.7,04.5,0677.2,30.8
2021-08-13T02:27:00Z,00000200,00000000,0003.74,0002.78,0001.93,0000.59,0000.23,0000.33,0000.82,0000.35,0000.20,18.4,24.7,06.6,04.5,0677.2,30.8
2021-08-13T02:28:00Z,00000200,00000000,0003.80,0002.28,0001.94,0000.21,0000.33,0000.26,0000.87,0001.03,0000.70,18.4,24.7,06.6,04.5,0677.2,30.9
2021-08-13T02:29:00Z,00000200,00000000,0002.70,0002.68,0001.61,0000.12,0000.29,0000.26,0001.06,0000.81,0000.65,18.5,24.8,06.6,04.5,0677.2,30.9
2021-08-13T02:30:00Z,00000200,00000000,0003.90,0002.17,0002.00,0000.19,-000.07,0000.37,0000.60,0000.58,0000.52,18.6,24.8,06.5,04.5,0677.3,30.9
2021-08-13T02:31:00Z,00000200,00000000,0003.20,0002.25,0001.98,0000.42,0000.16,0000.44,0000.95,0000.94,0000.61,18.7,24.9,06.5,04.5,0677.3,30.9
2021-08-13T02:32:00Z,00000200,00000000,0003.29,0002.35,0001.63,0000.32,0000.26,0000.10,0000.27,0000.27,0000.53,18.7,24.9,06.4,04.4,0677.3,30.9
2021-08-13T02:33:00Z,00000200,00000000,0003.05,0002.11,0002.03,0000.36,0000.39,0000.38,0000.71,0000.71,0000.43,18.7,24.9,06.5,04.4,0677.3,30.9
2021-08-13T02:34:00Z,00000200,00000000,0003.19,0002.39,0001.83,0000.72,0000.12,0000.57,0000.69,0000.60,0000.41,18.7,24.9,06.4,04.4,0677.3,30.9
2021-08-13T02:35:00Z,00000200,00000000,0002.62,0001.95,0001.68,0000.37,0000.14,0000.48,0000.61,0000.34,0000.23,18.6,24.8,06.4,04.3,0677.3,30.9
2021-08-13T02:36:00Z,00000200,00000000,0002.84,0001.79,0001.78,0000.10,0000.09,0000.27,0000.60,0000.78,0000.81,18.6,24.8,06.4,04.4,0677.3,30.9
2021-08-13T02:37:00Z,00000200,00000000,0003.44,0002.05,0001.50,0000.50,0000.34,-000.09,0000.55,0000.50,0000.38,18.5,24.8,06.4,04.4,0677.3,30.9
2021-08-13T02:38:00Z,00000200,00000000,0003.07,0002.20,0001.39,0001.04,-000.11,0000.20,0000.39,0000.01,0000.15,18.5,24.8,06.4,04.4,0677.3,30.9
2021-08-13T02:39:00Z,00000200,00000000,0003.04,0002.21,0001.85,0000.86,0000.42,0000.67,0000.91,0001.08,0000.26,18.5,24.8,06.4,04.4,0677.3,30.8
2021-08-13T02:40:00Z,00000200,00000000,0003.26,0002.05,0001.46,0000.62,0000.05,0000.37,0000.63,0000.42,0000.76,18.4,24.7,06.3,04.3,0677.3,30.8
2021-08-13T02:41:00Z,00000200,00000000,0003.08,0002.13,0001.40,0000.31,0000.28,0000.11,0000.51,0000.78,0000.56,18.4,24.7,06.4,04.4,0677.3,30.8
2021-08-13T02:42:00Z,00000200,00000000,0001.84,0001.93,0001.44,0000.23,0000.54,0000.47,0000.84,0000.74,0000.27,18.4,24.7,06.4,04.3,0677.3,30.8
2021-08-13T02:43:00Z,00000200,00000000,0002.57,0001.85,0001.62,0000.82,0000.24,0000.35,0000.48,0000.37,0000.75,18.4,24.7,06.4,04.3,0677.3,30.8
2021-08-13T02:44:00Z,00000200,00000000,0002.80,0001.99,0001.26,0000.51,0000.52,-000.08,0000.83,0000.97,0000.21,18.5,24.7,06.3,04.3,0677.3,30.9
2021-08-13T02:45:00Z,00000200,00000000,0003.24,0001.91,0001.51,0000.45,0000.36,0000.43,0000.59,0000.24,0000.77,18.6,24.8,06.3,04.3,0677.3,30.9
2021-08-13T02:46:00Z,00000200,00000000,0002.96,0001.86,0001.42,0000.83,0000.32,0000.35,0000.88,0000.58,0000.20,18.6,24.8,06.3,04.3,0677.3,30.9
2021-08-13T02:47:00Z,00000200,00000000,0003.25,0002.33,0001.72,0000.14,0000.54,0000.33,0000.50,0000.65,0000.73,18.7,24.9,06.2,04.2,0677.3,30.9
2021-08-13T02:48:00Z,00000200,00000000,0002.88,0001.91,0001.21,-000.16,0000.27,0000.26,0000.15,0000.16,0000.02,18.7,24.9,06.2,04.3,0677.3,30.9
2021-08-13T02:49:00Z,00000200,00000000,0002.46,0001.87,0001.48,0000.70,0000.11,0000.07,0000.62,0000.71,0000.77,18.7,24.9,06.3,04.3,0677.3,30.9
2021-08-13T02:50:00Z,00000200,00000000,0003.00,0001.93,0001.24,0000.13,0000.35,0000.18,0000.37,0000.69,0000.03,18.6,24.8,06.1,04.2,0677.4,30.9
2021-08-13T02:51:00Z,00000200,00000000,0003.61,0001.99,0001.38,-000.02,0000.57,0000.11,0000.84,0000.48,0000.43,18.6,24.8,06.1,04.2,0677.4,30.9
2021-08-13T02:52:00Z,00000200,00000000,0002.86,0002.25,0001.56,0000.37,0000.22,0000.39,0000.53,0000.38,0000.46,18.5,24.8,06.1,04.2,0677.4,30.9
2021-08-13T02:53:00Z,00000200,00000000,0003.14,0001.52,0001.49,0000.65,0000.29,0000.25,0000.49,0000.51,0000.18,18.5,24.8,06.2,04.2,0677.4,30.8
2021-08-13T02:54:00Z,00000200,00000000,0002.59,0002.12,0001.23,-000.09,0000.41,0000.25,0000.80,0000.54,0000.64,18.5,24.7,06.2,04.2,0677.4,30.8
2021-08-13T02:55:00Z,00000200,00000000,0002.51,0002.13,0001.65,0000.59,0000.52,0000.04,0000.22,0000.55,0000.30,18.4,24.7,06.2,04.2,0677.4,30.8
2021-08-13T02:56:00Z,00000200,00000000,0002.81,0002.42,0001.44,0000.67,0000.48,0000.26,0001.03,0000.93,0000.61,18.4,24.7,06.2,04.2,0677.3,30.8
2021-08-13T02:57:00Z,00000200,40000000,,,,,,,0000.27,0000.13,0000.57,18.4,24.7,06.3,04.3,0677.4,30.8
2021-08-13T02:58:00Z,00000200,60000000,,,,,,,0000.08,-000.19,-000.17,18.1,24.8,06.3,04.1,0676.3,30.8
2021-08-13T02:59:00Z,00000200,20000000,,,,,,,-000.05,0000.32,-000.18,18.1,25.0,06.3,04.1,0676.3,30.9
